Showing default

EUTE 21A (EUTE W3), 25673

Orbit data source: Space-Track

EUTE 21A (EUTE W3), 25673 is a payload satellite owned by Eutelsat (FR) in GEO that was launched on Mon, 12 Apr 1999 UTC via an ATLAS IIAS launch vehicle from the Air Force Eastern Test Range (AFETR). Payloads include a variety of satellites, spacecraft, and rockets equipped with specific instruments for various scientific and technological missions. These include communications satellites like Starlink; space stations such as the ISS; scientific satellites like the Hubble; Earth observation satellites from companies like Planet Labs, Umbra, and HawkEye 360; GPS; miniature CubeSats for education and research; and military/defense satellites.

Loading next visibility...
EUTE 21A (EUTE W3) details
Identifier
25673, 1999-018A
Orbit
GEO
Last TLE update14 hours ago
Origin
Flag of FREutelsat (FR / EUTE)
ManufacturerAlcatel/Cannes
MissionNon-operational Civil Communications
Bus & MotorSPACEBUS 3000B2, S400
Mass3,177 kg wet, 1,380 kg dry
Launch date (UTC)
1999-04-12 (26 years ago)
Launch vehicle
ATLAS IIAS
Launch site
Air Force Eastern Test Range (AFETR)
Object type
Payload
Rocket body
Debris
Shape & HBRBox + 2 Pan, Unknown HBR
Radar Cross Section32.393 m², Large (>1 m²)

Expand to show TLE details & history

TLE from 14 hours ago
0 EUTE 21A (EUTE W3)
1 25673U 99018A   24360.95031214 -.00000164  00000-0  00000-0 0  9992
2 25673   9.3447  55.5965 0004961 113.9924 229.8074  0.98431149 36253
Epoch: 2024-12-25T22:48Z
Definitive object data (Epoch: 2024-12-25T22:48:26.968Z)
Latitude-2.59957°
Longitude-37.49537°
Altitude36,324.108 km
Speed3.055 km/s
True Right ascension02h 38m 12s
True Declination-2° 35' 49"
Sunlit
Object was in daylight at TLE epoch
Visualization TLE readout
Latitude-1.06366°
Longitude164.93204°
Altitude36,304.014 km
Speed3.056 km/s
Apparent Right ascension16h 32m 40s
Apparent Declination-6° 48' 24"
Sunlit
Object is in daylight
Visualization observer readout
Local Sidereal Time11:53:20
Azimuth108.429° ESE
Elevation10.751°
Doppler factor1
Orbital elements
Apogee altitude36,332.812 km
Perigee altitude36,290.455 km
Semi-major axis42,689.77 km
Eccentricity0.0004961
Inclination9.3447°
RAAN55.5965°
Arg. of periapsis113.9924°
True anomaly229.76399°
Mean anomaly229.8074°
Eccentric anomaly229.78569°
Mean motion0.24607 °/min
BSTARUnknown
Orbital period1463 mins
Loading historical data...
25673 neighbors
Authenticating...
Loading maneuver chart data...
Loading historical data...
Loading historical data...
Loading historical data...
Loading historical data...
Loading historical data...
Loading historical data...
Loading historical data...
Other satellites on launch #18 in the year 1999 (1999-04-12 UTC)

EUTE 21A (EUTE W3) Visibility forecast

Observer location: undefined°, undefined

Span
Click to sort rows by Start time (UTC) header in descending order
Start Az.
Max El. time (UTC)
Max El. Az.
Max El.
End time (UTC)
End Az.
26 mins2024-12-26 12:31:48.857Z108.443° ESE2024-12-26 12:31:48.857Z108.443° ESE10.56°2024-12-26 12:57:48.857Z109.375° ESE
847 mins2024-12-26 22:24:48.857Z112.702° SE2024-12-27 06:30:48.857Z103.59° ESE20.42°2024-12-27 12:31:48.857Z112.654° SE
|